Powrót do katalogu

RADUGA 1M-2

AktywnyMilitariaGEO
NORAD 36358·PAYLOAD·🇷🇺 Russia

Wystrzelony Jan 28, 2010 z Baikonur Cosmodrome

Loading…

TLE

ŚwieżeSource: Space-Track

Epoka: Sep 14, 2026, 21:49 UTC

1 36358U 10002A   26257.90917403  .00000050  00000-0  00000-0 0  9998
2 36358   3.8486  77.6882 0004583 241.6970 249.0808  0.98965054 50915

Śledź RADUGA 1M-2 w czasie rzeczywistym z AllMySat

Download on the App Store